Back to Top

Language: 

My Weather Underground Personal Weather Station Historical Data with Graphs...

Delerius Weather Station Historical Data
Daily Summary for February 09, 2018 Units:  Both    English   Metric
« Previous Day
Next Day »
Daily Weekly Monthly Yearly Custom
  High: Low: Average:
Temperature: 44.8 °F /  7.1 °C 32.9 °F /  0.5 °C 39.5 °F /  4.2 °C
Dew Point: 42.6 °F /  5.9 °C 28.0 °F /  -2.2 °C 34.4 °F /  1.3 °C
Humidity: 95 % 57 % 83 %
Wind Speed: 17.0 mph /  27.4 km/h - 8.3 mph /  13.4 km/h
Wind Gust: 31.0 mph /  49.9 km/h - -
Wind:- - WNW
Pressure: 29.99 in /  1015.5 hPa 29.56 in /  1000.9 hPa -
Precipitation: 0.02 in /  0.51 mm    
Historical Graphs
 
 
Tabular Data for February 09, 2018
Time Temperature Dew Point Pressure Wind Wind Speed Wind Gust Humidity Rainfall Rate (Hourly) solar Conditions
00:00 44.8 °F /  7.1 °C 42.6 °F /  5.9 °C 29.64 in /  1003.6 hPa SW 8.0 mph /  12.9 km/h 12.0 mph /  19.3 km/h 92 % 0.00 in /  0 mm 0 W/m2
00:05 44.6 °F /  7 °C 42.4 °F /  5.8 °C 29.64 in /  1003.6 hPa SW 8.0 mph /  12.9 km/h 13.0 mph /  20.9 km/h 92 % 0.00 in /  0 mm 0 W/m2
00:10 44.6 °F /  7 °C 42.4 °F /  5.8 °C 29.64 in /  1003.6 hPa SW 8.0 mph /  12.9 km/h 11.0 mph /  17.7 km/h 92 % 0.00 in /  0 mm 0 W/m2
00:15 44.4 °F /  6.9 °C 42.2 °F /  5.7 °C 29.63 in /  1003.3 hPa SW 8.0 mph /  12.9 km/h 13.0 mph /  20.9 km/h 92 % 0.00 in /  0 mm 0 W/m2
00:20 44.4 °F /  6.9 °C 42.2 °F /  5.7 °C 29.63 in /  1003.3 hPa SSW 7.0 mph /  11.3 km/h 12.0 mph /  19.3 km/h 92 % 0.00 in /  0 mm 0 W/m2
00:25 44.4 °F /  6.9 °C 42.5 °F /  5.8 °C 29.63 in /  1003.3 hPa SSW 8.0 mph /  12.9 km/h 10.0 mph /  16.1 km/h 93 % 0.00 in /  0 mm 0 W/m2
00:30 44.4 °F /  6.9 °C 42.5 °F /  5.8 °C 29.63 in /  1003.3 hPa SW 8.0 mph /  12.9 km/h 10.0 mph /  16.1 km/h 93 % 0.00 in /  0 mm 0 W/m2
00:35 44.4 °F /  6.9 °C 42.5 °F /  5.8 °C 29.63 in /  1003.3 hPa SW 8.0 mph /  12.9 km/h 12.0 mph /  19.3 km/h 93 % 0.00 in /  0 mm 0 W/m2
00:40 44.2 °F /  6.8 °C 42.3 °F /  5.7 °C 29.62 in /  1002.9 hPa SSW 6.0 mph /  9.7 km/h 10.0 mph /  16.1 km/h 93 % 0.00 in /  0 mm 0 W/m2
00:45 44.2 °F /  6.8 °C 42.3 °F /  5.7 °C 29.62 in /  1002.9 hPa SSW 9.0 mph /  14.5 km/h 13.0 mph /  20.9 km/h 93 % 0.00 in /  0 mm 0 W/m2
00:50 44.2 °F /  6.8 °C 42.3 °F /  5.7 °C 29.62 in /  1002.9 hPa SSW 8.0 mph /  12.9 km/h 12.0 mph /  19.3 km/h 93 % 0.00 in /  0 mm 0 W/m2
00:55 44.2 °F /  6.8 °C 42.3 °F /  5.7 °C 29.62 in /  1002.9 hPa SW 7.0 mph /  11.3 km/h 9.0 mph /  14.5 km/h 93 % 0.00 in /  0 mm 0 W/m2
01:00 44.2 °F /  6.8 °C 42.3 °F /  5.7 °C 29.62 in /  1002.9 hPa SW 8.0 mph /  12.9 km/h 11.0 mph /  17.7 km/h 93 % 0.00 in /  0 mm 0 W/m2
01:05 44.2 °F /  6.8 °C 42.3 °F /  5.7 °C 29.62 in /  1002.9 hPa SW 6.0 mph /  9.7 km/h 10.0 mph /  16.1 km/h 93 % 0.00 in /  0 mm 0 W/m2
01:10 44.2 °F /  6.8 °C 42.3 °F /  5.7 °C 29.62 in /  1002.9 hPa SW 7.0 mph /  11.3 km/h 11.0 mph /  17.7 km/h 93 % 0.00 in /  0 mm 0 W/m2
01:15 44.2 °F /  6.8 °C 42.3 °F /  5.7 °C 29.62 in /  1002.9 hPa WSW 4.0 mph /  6.4 km/h 8.0 mph /  12.9 km/h 93 % 0.00 in /  0 mm 0 W/m2
01:20 44.2 °F /  6.8 °C 42.3 °F /  5.7 °C 29.61 in /  1002.6 hPa WSW 5.0 mph /  8 km/h 8.0 mph /  12.9 km/h 93 % 0.00 in /  0 mm 0 W/m2
01:25 44.2 °F /  6.8 °C 42.3 °F /  5.7 °C 29.62 in /  1002.9 hPa WSW 4.0 mph /  6.4 km/h 7.0 mph /  11.3 km/h 93 % 0.00 in /  0 mm 0 W/m2
01:30 44.2 °F /  6.8 °C 42.3 °F /  5.7 °C 29.61 in /  1002.6 hPa WNW 4.0 mph /  6.4 km/h 7.0 mph /  11.3 km/h 93 % 0.00 in /  0 mm 0 W/m2
01:35 44.1 °F /  6.7 °C 42.2 °F /  5.7 °C 29.61 in /  1002.6 hPa WNW 4.0 mph /  6.4 km/h 6.0 mph /  9.7 km/h 93 % 0.00 in /  0 mm 0 W/m2
01:40 43.9 °F /  6.6 °C 42.0 °F /  5.6 °C 29.61 in /  1002.6 hPa NW 2.0 mph /  3.2 km/h 7.0 mph /  11.3 km/h 93 % 0.00 in /  0 mm 0 W/m2
01:45 43.5 °F /  6.4 °C 41.6 °F /  5.3 °C 29.61 in /  1002.6 hPa WNW 5.0 mph /  8 km/h 10.0 mph /  16.1 km/h 93 % 0.00 in /  0 mm 0 W/m2
01:50 43.3 °F /  6.3 °C 41.5 °F /  5.3 °C 29.61 in /  1002.6 hPa WNW 5.0 mph /  8 km/h 8.0 mph /  12.9 km/h 93 % 0.00 in /  0 mm 0 W/m2
01:55 43.2 °F /  6.2 °C 41.3 °F /  5.2 °C 29.61 in /  1002.6 hPa WNW 7.0 mph /  11.3 km/h 10.0 mph /  16.1 km/h 93 % 0.00 in /  0 mm 0 W/m2
02:00 43.2 °F /  6.2 °C 41.3 °F /  5.2 °C 29.61 in /  1002.6 hPa WNW 6.0 mph /  9.7 km/h 8.0 mph /  12.9 km/h 93 % 0.00 in /  0 mm 0 W/m2
02:05 43.0 °F /  6.1 °C 41.1 °F /  5.1 °C 29.61 in /  1002.6 hPa WNW 6.0 mph /  9.7 km/h 9.0 mph /  14.5 km/h 93 % 0.00 in /  0 mm 0 W/m2
02:10 43.0 °F /  6.1 °C 41.1 °F /  5.1 °C 29.61 in /  1002.6 hPa WNW 3.0 mph /  4.8 km/h 5.0 mph /  8 km/h 93 % 0.00 in /  0 mm 0 W/m2
02:15 43.0 °F /  6.1 °C 41.1 °F /  5.1 °C 29.61 in /  1002.6 hPa WNW 3.0 mph /  4.8 km/h 5.0 mph /  8 km/h 93 % 0.00 in /  0 mm 0 W/m2
02:20 42.8 °F /  6 °C 40.9 °F /  4.9 °C 29.60 in /  1002.3 hPa WNW 2.0 mph /  3.2 km/h 5.0 mph /  8 km/h 93 % 0.00 in /  0 mm 0 W/m2
02:25 42.6 °F /  5.9 °C 40.7 °F /  4.8 °C 29.60 in /  1002.3 hPa WNW 1.0 mph /  1.6 km/h 4.0 mph /  6.4 km/h 93 % 0.00 in /  0 mm 0 W/m2
02:30 42.4 °F /  5.8 °C 40.6 °F /  4.8 °C 29.59 in /  1001.9 hPa Calm   1.0 mph /  1.6 km/h 93 % 0.00 in /  0 mm 0 W/m2
02:35 42.3 °F /  5.7 °C 40.4 °F /  4.7 °C 29.60 in /  1002.3 hPa WNW 1.0 mph /  1.6 km/h 2.0 mph /  3.2 km/h 93 % 0.00 in /  0 mm 0 W/m2
02:40 42.3 °F /  5.7 °C 40.4 °F /  4.7 °C 29.59 in /  1001.9 hPa Calm     93 % 0.00 in /  0 mm 0 W/m2
02:45 42.1 °F /  5.6 °C 40.2 °F /  4.6 °C 29.59 in /  1001.9 hPa Calm     93 % 0.00 in /  0 mm 0 W/m2
02:50 41.7 °F /  5.4 °C 39.8 °F /  4.3 °C 29.58 in /  1001.6 hPa Calm     93 % 0.00 in /  0 mm 0 W/m2
02:55 41.4 °F /  5.2 °C 39.5 °F /  4.2 °C 29.58 in /  1001.6 hPa Calm     93 % 0.00 in /  0 mm 0 W/m2
03:00 41.2 °F /  5.1 °C 39.3 °F /  4.1 °C 29.58 in /  1001.6 hPa Calm     93 % 0.00 in /  0 mm 0 W/m2
03:05 41.0 °F /  5 °C 39.1 °F /  3.9 °C 29.58 in /  1001.6 hPa Calm     93 % 0.00 in /  0 mm 0 W/m2
03:10 40.8 °F /  4.9 °C 39.0 °F /  3.9 °C 29.58 in /  1001.6 hPa Calm     93 % 0.00 in /  0 mm 0 W/m2
03:15 40.8 °F /  4.9 °C 39.0 °F /  3.9 °C 29.58 in /  1001.6 hPa Calm     93 % 0.00 in /  0 mm 0 W/m2
03:20 40.6 °F /  4.8 °C 38.8 °F /  3.8 °C 29.58 in /  1001.6 hPa Calm     93 % 0.00 in /  0 mm 0 W/m2
03:25 40.6 °F /  4.8 °C 39.0 °F /  3.9 °C 29.57 in /  1001.2 hPa Calm     94 % 0.00 in /  0 mm 0 W/m2
03:30 40.5 °F /  4.7 °C 38.9 °F /  3.8 °C 29.57 in /  1001.2 hPa Calm     94 % 0.00 in /  0 mm 0 W/m2
03:36 40.5 °F /  4.7 °C 38.9 °F /  3.8 °C 29.57 in /  1001.2 hPa WNW 1.0 mph /  1.6 km/h 3.0 mph /  4.8 km/h 94 % 0.00 in /  0 mm 0 W/m2
03:41 40.5 °F /  4.7 °C 38.9 °F /  3.8 °C 29.57 in /  1001.2 hPa Calm     94 % 0.00 in /  0 mm 0 W/m2
03:46 40.5 °F /  4.7 °C 38.9 °F /  3.8 °C 29.57 in /  1001.2 hPa WNW 1.0 mph /  1.6 km/h 2.0 mph /  3.2 km/h 94 % 0.00 in /  0 mm 0 W/m2
03:51 40.5 °F /  4.7 °C 38.9 °F /  3.8 °C 29.57 in /  1001.2 hPa WNW 3.0 mph /  4.8 km/h 5.0 mph /  8 km/h 94 % 0.00 in /  0 mm 0 W/m2
03:56 40.5 °F /  4.7 °C 38.9 °F /  3.8 °C 29.57 in /  1001.2 hPa WNW 3.0 mph /  4.8 km/h 5.0 mph /  8 km/h 94 % 0.00 in /  0 mm 0 W/m2
04:01 40.5 °F /  4.7 °C 38.9 °F /  3.8 °C 29.57 in /  1001.2 hPa WNW 3.0 mph /  4.8 km/h 6.0 mph /  9.7 km/h 94 % 0.00 in /  0 mm 0 W/m2
04:06 40.3 °F /  4.6 °C 38.7 °F /  3.7 °C 29.57 in /  1001.2 hPa WNW 1.0 mph /  1.6 km/h 4.0 mph /  6.4 km/h 94 % 0.00 in /  0 mm 0 W/m2
04:11 40.1 °F /  4.5 °C 38.5 °F /  3.6 °C 29.57 in /  1001.2 hPa Calm     94 % 0.00 in /  0 mm 0 W/m2
04:16 39.9 °F /  4.4 °C 38.3 °F /  3.5 °C 29.57 in /  1001.2 hPa Calm     94 % 0.00 in /  0 mm 0 W/m2
04:21 39.7 °F /  4.3 °C 38.2 °F /  3.4 °C 29.57 in /  1001.2 hPa Calm     94 % 0.00 in /  0 mm 0 W/m2
04:26 39.6 °F /  4.2 °C 38.0 °F /  3.3 °C 29.56 in /  1000.9 hPa Calm     94 % 0.00 in /  0 mm 0 W/m2
04:31 39.6 °F /  4.2 °C 38.0 °F /  3.3 °C 29.57 in /  1001.2 hPa Calm   2.0 mph /  3.2 km/h 94 % 0.00 in /  0 mm 0 W/m2
04:36 39.4 °F /  4.1 °C 37.8 °F /  3.2 °C 29.57 in /  1001.2 hPa Calm     94 % 0.00 in /  0 mm 0 W/m2
04:41 39.4 °F /  4.1 °C 37.8 °F /  3.2 °C 29.57 in /  1001.2 hPa Calm     94 % 0.00 in /  0 mm 0 W/m2
04:46 39.4 °F /  4.1 °C 37.8 °F /  3.2 °C 29.57 in /  1001.2 hPa Calm     94 % 0.00 in /  0 mm 0 W/m2
04:51 39.6 °F /  4.2 °C 38.2 °F /  3.4 °C 29.57 in /  1001.2 hPa WNW 1.0 mph /  1.6 km/h 4.0 mph /  6.4 km/h 95 % 0.00 in /  0 mm 0 W/m2
04:56 39.6 °F /  4.2 °C 38.2 °F /  3.4 °C 29.57 in /  1001.2 hPa WNW 1.0 mph /  1.6 km/h 3.0 mph /  4.8 km/h 95 % 0.00 in /  0 mm 0 W/m2
05:01 39.6 °F /  4.2 °C 38.2 °F /  3.4 °C 29.57 in /  1001.2 hPa Calm   1.0 mph /  1.6 km/h 95 % 0.00 in /  0 mm 0 W/m2
05:06 39.6 °F /  4.2 °C 38.2 °F /  3.4 °C 29.57 in /  1001.2 hPa West 1.0 mph /  1.6 km/h 5.0 mph /  8 km/h 95 % 0.00 in /  0 mm 0 W/m2
05:11 39.6 °F /  4.2 °C 38.2 °F /  3.4 °C 29.57 in /  1001.2 hPa West 1.0 mph /  1.6 km/h 4.0 mph /  6.4 km/h 95 % 0.00 in /  0 mm 0 W/m2
05:16 39.7 °F /  4.3 °C 38.4 °F /  3.6 °C 29.57 in /  1001.2 hPa West 3.0 mph /  4.8 km/h 6.0 mph /  9.7 km/h 95 % 0.00 in /  0 mm 0 W/m2
05:21 39.9 °F /  4.4 °C 38.3 °F /  3.5 °C 29.58 in /  1001.6 hPa WSW 11.0 mph /  17.7 km/h 15.0 mph /  24.1 km/h 94 % 0.00 in /  0 mm 0 W/m2
05:26 40.3 °F /  4.6 °C 38.7 °F /  3.7 °C 29.58 in /  1001.6 hPa West 14.0 mph /  22.5 km/h 21.0 mph /  33.8 km/h 94 % 0.01 in /  0.25 mm 0 W/m2
05:31 40.3 °F /  4.6 °C 38.4 °F /  3.6 °C 29.58 in /  1001.6 hPa West 11.0 mph /  17.7 km/h 19.0 mph /  30.6 km/h 93 % 0.01 in /  0.25 mm 0 W/m2
05:36 39.7 °F /  4.3 °C 37.6 °F /  3.1 °C 29.58 in /  1001.6 hPa West 10.0 mph /  16.1 km/h 14.0 mph /  22.5 km/h 92 % 0.01 in /  0.25 mm 0 W/m2
05:41 39.6 °F /  4.2 °C 37.4 °F /  3 °C 29.58 in /  1001.6 hPa WNW 11.0 mph /  17.7 km/h 15.0 mph /  24.1 km/h 92 % 0.01 in /  0.25 mm 0 W/m2
05:46 39.2 °F /  4 °C 37.1 °F /  2.8 °C 29.58 in /  1001.6 hPa West 8.0 mph /  12.9 km/h 11.0 mph /  17.7 km/h 92 % 0.01 in /  0.25 mm 0 W/m2
05:51 39.0 °F /  3.9 °C 36.9 °F /  2.7 °C 29.58 in /  1001.6 hPa West 8.0 mph /  12.9 km/h 14.0 mph /  22.5 km/h 92 % 0.01 in /  0.25 mm 0 W/m2
05:56 38.7 °F /  3.7 °C 36.5 °F /  2.5 °C 29.59 in /  1001.9 hPa West 10.0 mph /  16.1 km/h 14.0 mph /  22.5 km/h 92 % 0.01 in /  0.25 mm 0 W/m2
06:01 38.5 °F /  3.6 °C 36.4 °F /  2.4 °C 29.59 in /  1001.9 hPa West 7.0 mph /  11.3 km/h 12.0 mph /  19.3 km/h 92 % 0.01 in /  0.25 mm 0 W/m2
06:07 38.3 °F /  3.5 °C 36.2 °F /  2.3 °C 29.59 in /  1001.9 hPa West 8.0 mph /  12.9 km/h 12.0 mph /  19.3 km/h 92 % 0.01 in /  0.25 mm 0 W/m2
06:12 38.1 °F /  3.4 °C 36.0 °F /  2.2 °C 29.59 in /  1001.9 hPa West 10.0 mph /  16.1 km/h 14.0 mph /  22.5 km/h 92 % 0.01 in /  0.25 mm 0 W/m2
06:17 37.9 °F /  3.3 °C 35.8 °F /  2.1 °C 29.58 in /  1001.6 hPa West 9.0 mph /  14.5 km/h 13.0 mph /  20.9 km/h 92 % 0.01 in /  0.25 mm 0 W/m2
06:22 37.9 °F /  3.3 °C 35.8 °F /  2.1 °C 29.59 in /  1001.9 hPa West 9.0 mph /  14.5 km/h 14.0 mph /  22.5 km/h 92 % 0.00 in /  0 mm 0 W/m2
06:27 37.8 °F /  3.2 °C 35.6 °F /  2 °C 29.59 in /  1001.9 hPa West 8.0 mph /  12.9 km/h 18.0 mph /  29 km/h 92 % 0.00 in /  0 mm 0 W/m2
06:32 37.8 °F /  3.2 °C 35.6 °F /  2 °C 29.59 in /  1001.9 hPa West 10.0 mph /  16.1 km/h 16.0 mph /  25.7 km/h 92 % 0.00 in /  0 mm 0 W/m2
06:37 37.8 °F /  3.2 °C 35.6 °F /  2 °C 29.59 in /  1001.9 hPa WSW 9.0 mph /  14.5 km/h 16.0 mph /  25.7 km/h 92 % 0.00 in /  0 mm 0 W/m2
06:42 37.9 °F /  3.3 °C 35.8 °F /  2.1 °C 29.59 in /  1001.9 hPa West 8.0 mph /  12.9 km/h 14.0 mph /  22.5 km/h 92 % 0.00 in /  0 mm 0 W/m2
06:47 37.9 °F /  3.3 °C 36.1 °F /  2.3 °C 29.59 in /  1001.9 hPa West 9.0 mph /  14.5 km/h 14.0 mph /  22.5 km/h 93 % 0.00 in /  0 mm 0 W/m2
06:52 37.9 °F /  3.3 °C 36.1 °F /  2.3 °C 29.59 in /  1001.9 hPa West 9.0 mph /  14.5 km/h 13.0 mph /  20.9 km/h 93 % 0.00 in /  0 mm 0 W/m2
06:57 38.1 °F /  3.4 °C 36.0 °F /  2.2 °C 29.59 in /  1001.9 hPa West 11.0 mph /  17.7 km/h 15.0 mph /  24.1 km/h 92 % 0.00 in /  0 mm 0 W/m2
07:02 38.1 °F /  3.4 °C 36.0 °F /  2.2 °C 29.59 in /  1001.9 hPa West 11.0 mph /  17.7 km/h 20.0 mph /  32.2 km/h 92 % 0.01 in /  0.25 mm 0 W/m2
07:07 38.1 °F /  3.4 °C 36.0 °F /  2.2 °C 29.60 in /  1002.3 hPa West 10.0 mph /  16.1 km/h 18.0 mph /  29 km/h 92 % 0.01 in /  0.25 mm 0 W/m2
07:12 38.3 °F /  3.5 °C 36.2 °F /  2.3 °C 29.60 in /  1002.3 hPa WSW 11.0 mph /  17.7 km/h 19.0 mph /  30.6 km/h 92 % 0.01 in /  0.25 mm 0 W/m2
07:17 38.1 °F /  3.4 °C 36.0 °F /  2.2 °C 29.60 in /  1002.3 hPa West 10.0 mph /  16.1 km/h 15.0 mph /  24.1 km/h 92 % 0.01 in /  0.25 mm 0 W/m2
07:22 38.1 °F /  3.4 °C 35.7 °F /  2.1 °C 29.60 in /  1002.3 hPa West 10.0 mph /  16.1 km/h 14.0 mph /  22.5 km/h 91 % 0.01 in /  0.25 mm 0 W/m2
07:27 38.1 °F /  3.4 °C 35.7 °F /  2.1 °C 29.60 in /  1002.3 hPa West 14.0 mph /  22.5 km/h 20.0 mph /  32.2 km/h 91 % 0.01 in /  0.25 mm 0 W/m2
07:32 38.1 °F /  3.4 °C 35.7 °F /  2.1 °C 29.60 in /  1002.3 hPa West 13.0 mph /  20.9 km/h 20.0 mph /  32.2 km/h 91 % 0.01 in /  0.25 mm 0 W/m2
07:37 38.1 °F /  3.4 °C 35.7 °F /  2.1 °C 29.61 in /  1002.6 hPa WNW 10.0 mph /  16.1 km/h 15.0 mph /  24.1 km/h 91 % 0.01 in /  0.25 mm 0 W/m2
07:42 38.1 °F /  3.4 °C 35.7 °F /  2.1 °C 29.61 in /  1002.6 hPa West 11.0 mph /  17.7 km/h 16.0 mph /  25.7 km/h 91 % 0.01 in /  0.25 mm 5 W/m2
07:47 38.1 °F /  3.4 °C 35.7 °F /  2.1 °C 29.61 in /  1002.6 hPa West 9.0 mph /  14.5 km/h 16.0 mph /  25.7 km/h 91 % 0.01 in /  0.25 mm 5 W/m2
07:52 37.9 °F /  3.3 °C 35.5 °F /  1.9 °C 29.61 in /  1002.6 hPa West 12.0 mph /  19.3 km/h 19.0 mph /  30.6 km/h 91 % 0.01 in /  0.25 mm 7 W/m2
07:57 37.9 °F /  3.3 °C 35.5 °F /  1.9 °C 29.62 in /  1002.9 hPa West 14.0 mph /  22.5 km/h 23.0 mph /  37 km/h 91 % 0.01 in /  0.25 mm 11 W/m2
08:02 38.1 °F /  3.4 °C 35.7 °F /  2.1 °C 29.62 in /  1002.9 hPa WNW 14.0 mph /  22.5 km/h 20.0 mph /  32.2 km/h 91 % 0.00 in /  0 mm 14 W/m2
08:07 38.1 °F /  3.4 °C 35.7 °F /  2.1 °C 29.62 in /  1002.9 hPa WNW 9.0 mph /  14.5 km/h 13.0 mph /  20.9 km/h 91 % 0.00 in /  0 mm 18 W/m2
08:12 38.1 °F /  3.4 °C 35.7 °F /  2.1 °C 29.62 in /  1002.9 hPa WNW 12.0 mph /  19.3 km/h 16.0 mph /  25.7 km/h 91 % 0.00 in /  0 mm 19 W/m2
08:17 38.1 °F /  3.4 °C 35.7 °F /  2.1 °C 29.62 in /  1002.9 hPa WNW 13.0 mph /  20.9 km/h 21.0 mph /  33.8 km/h 91 % 0.00 in /  0 mm 19 W/m2
08:22 38.1 °F /  3.4 °C 35.7 °F /  2.1 °C 29.62 in /  1002.9 hPa West 9.0 mph /  14.5 km/h 16.0 mph /  25.7 km/h 91 % 0.00 in /  0 mm 23 W/m2
08:27 38.1 °F /  3.4 °C 35.7 °F /  2.1 °C 29.62 in /  1002.9 hPa WNW 11.0 mph /  17.7 km/h 16.0 mph /  25.7 km/h 91 % 0.00 in /  0 mm 21 W/m2
08:32 38.1 °F /  3.4 °C 35.4 °F /  1.9 °C 29.62 in /  1002.9 hPa WNW 12.0 mph /  19.3 km/h 19.0 mph /  30.6 km/h 90 % 0.00 in /  0 mm 16 W/m2
08:37 38.1 °F /  3.4 °C 35.4 °F /  1.9 °C 29.63 in /  1003.3 hPa WNW 12.0 mph /  19.3 km/h 18.0 mph /  29 km/h 90 % 0.00 in /  0 mm 16 W/m2
08:43 37.9 °F /  3.3 °C 35.3 °F /  1.8 °C 29.63 in /  1003.3 hPa WNW 15.0 mph /  24.1 km/h 23.0 mph /  37 km/h 90 % 0.00 in /  0 mm 18 W/m2
08:48 37.8 °F /  3.2 °C 35.1 °F /  1.7 °C 29.62 in /  1002.9 hPa WNW 15.0 mph /  24.1 km/h 22.0 mph /  35.4 km/h 90 % 0.00 in /  0 mm 19 W/m2
08:53 37.8 °F /  3.2 °C 35.1 °F /  1.7 °C 29.63 in /  1003.3 hPa WNW 9.0 mph /  14.5 km/h 15.0 mph /  24.1 km/h 90 % 0.00 in /  0 mm 14 W/m2
08:58 37.8 °F /  3.2 °C 35.1 °F /  1.7 °C 29.64 in /  1003.6 hPa WNW 10.0 mph /  16.1 km/h 18.0 mph /  29 km/h 90 % 0.00 in /  0 mm 19 W/m2
09:03 37.8 °F /  3.2 °C 35.1 °F /  1.7 °C 29.64 in /  1003.6 hPa WNW 14.0 mph /  22.5 km/h 26.0 mph /  41.8 km/h 90 % 0.00 in /  0 mm 33 W/m2
09:08 37.9 °F /  3.3 °C 35.3 °F /  1.8 °C 29.64 in /  1003.6 hPa WNW 16.0 mph /  25.7 km/h 25.0 mph /  40.2 km/h 90 % 0.00 in /  0 mm 165 W/m2
09:13 38.1 °F /  3.4 °C 35.4 °F /  1.9 °C 29.64 in /  1003.6 hPa WNW 12.0 mph /  19.3 km/h 19.0 mph /  30.6 km/h 90 % 0.00 in /  0 mm 162 W/m2
09:18 38.5 °F /  3.6 °C 35.8 °F /  2.1 °C 29.65 in /  1003.9 hPa WNW 16.0 mph /  25.7 km/h 23.0 mph /  37 km/h 90 % 0.00 in /  0 mm 199 W/m2
09:23 38.5 °F /  3.6 °C 35.8 °F /  2.1 °C 29.65 in /  1003.9 hPa WNW 12.0 mph /  19.3 km/h 21.0 mph /  33.8 km/h 90 % 0.00 in /  0 mm 190 W/m2
09:28 38.7 °F /  3.7 °C 35.7 °F /  2.1 °C 29.66 in /  1004.3 hPa WNW 12.0 mph /  19.3 km/h 21.0 mph /  33.8 km/h 89 % 0.00 in /  0 mm 223 W/m2
09:33 39.0 °F /  3.9 °C 36.1 °F /  2.3 °C 29.66 in /  1004.3 hPa WNW 15.0 mph /  24.1 km/h 21.0 mph /  33.8 km/h 89 % 0.00 in /  0 mm 77 W/m2
09:38 39.2 °F /  4 °C 36.2 °F /  2.3 °C 29.66 in /  1004.3 hPa WNW 11.0 mph /  17.7 km/h 20.0 mph /  32.2 km/h 89 % 0.00 in /  0 mm 267 W/m2
09:43 39.6 °F /  4.2 °C 36.3 °F /  2.4 °C 29.67 in /  1004.6 hPa WNW 15.0 mph /  24.1 km/h 23.0 mph /  37 km/h 88 % 0.00 in /  0 mm 190 W/m2
09:48 39.7 °F /  4.3 °C 36.5 °F /  2.5 °C 29.67 in /  1004.6 hPa WNW 12.0 mph /  19.3 km/h 19.0 mph /  30.6 km/h 88 % 0.00 in /  0 mm 102 W/m2
09:53 39.9 °F /  4.4 °C 36.4 °F /  2.4 °C 29.67 in /  1004.6 hPa WNW 15.0 mph /  24.1 km/h 26.0 mph /  41.8 km/h 87 % 0.00 in /  0 mm 278 W/m2
09:58 40.3 °F /  4.6 °C 36.4 °F /  2.4 °C 29.68 in /  1005 hPa NW 11.0 mph /  17.7 km/h 20.0 mph /  32.2 km/h 86 % 0.00 in /  0 mm 334 W/m2
10:03 40.5 °F /  4.7 °C 36.6 °F /  2.6 °C 29.68 in /  1005 hPa WNW 13.0 mph /  20.9 km/h 24.0 mph /  38.6 km/h 86 % 0.00 in /  0 mm 338 W/m2
10:08 40.6 °F /  4.8 °C 36.5 °F /  2.5 °C 29.68 in /  1005 hPa NW 10.0 mph /  16.1 km/h 16.0 mph /  25.7 km/h 85 % 0.00 in /  0 mm 338 W/m2
10:13 40.8 °F /  4.9 °C 36.7 °F /  2.6 °C 29.68 in /  1005 hPa WNW 14.0 mph /  22.5 km/h 29.0 mph /  46.7 km/h 85 % 0.00 in /  0 mm 121 W/m2
10:18 40.8 °F /  4.9 °C 36.4 °F /  2.4 °C 29.69 in /  1005.3 hPa WNW 12.0 mph /  19.3 km/h 19.0 mph /  30.6 km/h 84 % 0.00 in /  0 mm 390 W/m2
10:23 40.8 °F /  4.9 °C 36.1 °F /  2.3 °C 29.69 in /  1005.3 hPa NW 11.0 mph /  17.7 km/h 23.0 mph /  37 km/h 83 % 0.00 in /  0 mm 255 W/m2
10:28 40.8 °F /  4.9 °C 35.7 °F /  2.1 °C 29.69 in /  1005.3 hPa NW 15.0 mph /  24.1 km/h 23.0 mph /  37 km/h 82 % 0.00 in /  0 mm 163 W/m2
10:33 40.6 °F /  4.8 °C 35.6 °F /  2 °C 29.70 in /  1005.6 hPa WNW 17.0 mph /  27.4 km/h 27.0 mph /  43.5 km/h 82 % 0.00 in /  0 mm 158 W/m2
10:38 40.5 °F /  4.7 °C 35.4 °F /  1.9 °C 29.70 in /  1005.6 hPa NW 12.0 mph /  19.3 km/h 20.0 mph /  32.2 km/h 82 % 0.00 in /  0 mm 167 W/m2
10:43 40.5 °F /  4.7 °C 35.4 °F /  1.9 °C 29.71 in /  1006 hPa NW 13.0 mph /  20.9 km/h 20.0 mph /  32.2 km/h 82 % 0.00 in /  0 mm 186 W/m2
10:48 40.5 °F /  4.7 °C 35.4 °F /  1.9 °C 29.71 in /  1006 hPa WNW 15.0 mph /  24.1 km/h 28.0 mph /  45.1 km/h 82 % 0.00 in /  0 mm 253 W/m2
10:53 40.5 °F /  4.7 °C 35.4 °F /  1.9 °C 29.71 in /  1006 hPa WNW 13.0 mph /  20.9 km/h 20.0 mph /  32.2 km/h 82 % 0.00 in /  0 mm 192 W/m2
10:58 40.6 °F /  4.8 °C 35.3 °F /  1.8 °C 29.72 in /  1006.3 hPa NW 13.0 mph /  20.9 km/h 20.0 mph /  32.2 km/h 81 % 0.00 in /  0 mm 332 W/m2
11:03 40.8 °F /  4.9 °C 35.4 °F /  1.9 °C 29.73 in /  1006.7 hPa NW 11.0 mph /  17.7 km/h 26.0 mph /  41.8 km/h 81 % 0.00 in /  0 mm 469 W/m2
11:08 41.2 °F /  5.1 °C 35.2 °F /  1.8 °C 29.73 in /  1006.7 hPa NW 13.0 mph /  20.9 km/h 25.0 mph /  40.2 km/h 79 % 0.00 in /  0 mm 211 W/m2
11:13 41.4 °F /  5.2 °C 35.0 °F /  1.7 °C 29.73 in /  1006.7 hPa NW 13.0 mph /  20.9 km/h 23.0 mph /  37 km/h 78 % 0.00 in /  0 mm 176 W/m2
11:18 41.5 °F /  5.3 °C 34.9 °F /  1.6 °C 29.74 in /  1007 hPa NW 11.0 mph /  17.7 km/h 18.0 mph /  29 km/h 77 % 0.00 in /  0 mm 250 W/m2
11:23 41.5 °F /  5.3 °C 34.2 °F /  1.2 °C 29.74 in /  1007 hPa NW 13.0 mph /  20.9 km/h 21.0 mph /  33.8 km/h 75 % 0.00 in /  0 mm 190 W/m2
11:29 41.7 °F /  5.4 °C 34.4 °F /  1.3 °C 29.74 in /  1007 hPa NW 15.0 mph /  24.1 km/h 26.0 mph /  41.8 km/h 75 % 0.00 in /  0 mm 255 W/m2
11:34 41.7 °F /  5.4 °C 34.4 °F /  1.3 °C 29.75 in /  1007.3 hPa NW 14.0 mph /  22.5 km/h 24.0 mph /  38.6 km/h 75 % 0.00 in /  0 mm 204 W/m2
11:39 41.5 °F /  5.3 °C 33.9 °F /  1.1 °C 29.75 in /  1007.3 hPa NW 10.0 mph /  16.1 km/h 23.0 mph /  37 km/h 74 % 0.00 in /  0 mm 213 W/m2
11:44 41.4 °F /  5.2 °C 33.7 °F /  0.9 °C 29.75 in /  1007.3 hPa NW 14.0 mph /  22.5 km/h 22.0 mph /  35.4 km/h 74 % 0.00 in /  0 mm 199 W/m2
11:49 41.4 °F /  5.2 °C 33.7 °F /  0.9 °C 29.75 in /  1007.3 hPa WNW 15.0 mph /  24.1 km/h 28.0 mph /  45.1 km/h 74 % 0.00 in /  0 mm 176 W/m2
11:54 41.4 °F /  5.2 °C 33.7 °F /  0.9 °C 29.76 in /  1007.7 hPa NW 12.0 mph /  19.3 km/h 20.0 mph /  32.2 km/h 74 % 0.00 in /  0 mm 162 W/m2
11:59 41.7 °F /  5.4 °C 33.7 °F /  0.9 °C 29.76 in /  1007.7 hPa WNW 15.0 mph /  24.1 km/h 27.0 mph /  43.5 km/h 73 % 0.00 in /  0 mm 339 W/m2
12:04 42.1 °F /  5.6 °C 33.4 °F /  0.8 °C 29.76 in /  1007.7 hPa NW 17.0 mph /  27.4 km/h 25.0 mph /  40.2 km/h 71 % 0.00 in /  0 mm 517 W/m2
12:09 42.1 °F /  5.6 °C 33.4 °F /  0.8 °C 29.76 in /  1007.7 hPa NW 14.0 mph /  22.5 km/h 24.0 mph /  38.6 km/h 71 % 0.00 in /  0 mm 406 W/m2
12:14 42.1 °F /  5.6 °C 33.0 °F /  0.6 °C 29.77 in /  1008 hPa NW 16.0 mph /  25.7 km/h 26.0 mph /  41.8 km/h 70 % 0.00 in /  0 mm 192 W/m2
12:19 41.7 °F /  5.4 °C 32.3 °F /  0.2 °C 29.77 in /  1008 hPa NW 16.0 mph /  25.7 km/h 28.0 mph /  45.1 km/h 69 % 0.00 in /  0 mm 243 W/m2
12:24 41.9 °F /  5.5 °C 33.2 °F /  0.7 °C 29.77 in /  1008 hPa NW 10.0 mph /  16.1 km/h 19.0 mph /  30.6 km/h 71 % 0.00 in /  0 mm 165 W/m2
12:29 41.7 °F /  5.4 °C 32.3 °F /  0.2 °C 29.77 in /  1008 hPa NW 17.0 mph /  27.4 km/h 28.0 mph /  45.1 km/h 69 % 0.00 in /  0 mm 137 W/m2
12:34 42.1 °F /  5.6 °C 32.6 °F /  0.3 °C 29.77 in /  1008 hPa NW 13.0 mph /  20.9 km/h 22.0 mph /  35.4 km/h 69 % 0.00 in /  0 mm 445 W/m2
12:39 42.4 °F /  5.8 °C 33.0 °F /  0.6 °C 29.77 in /  1008 hPa NW 12.0 mph /  19.3 km/h 29.0 mph /  46.7 km/h 69 % 0.00 in /  0 mm 429 W/m2
12:44 42.8 °F /  6 °C 32.6 °F /  0.3 °C 29.78 in /  1008.4 hPa WNW 15.0 mph /  24.1 km/h 22.0 mph /  35.4 km/h 67 % 0.00 in /  0 mm 443 W/m2
12:49 43.2 °F /  6.2 °C 32.9 °F /  0.5 °C 29.78 in /  1008.4 hPa NW 12.0 mph /  19.3 km/h 20.0 mph /  32.2 km/h 67 % 0.00 in /  0 mm 418 W/m2
12:54 43.2 °F /  6.2 °C 31.8 °F /  -0.1 °C 29.78 in /  1008.4 hPa NW 16.0 mph /  25.7 km/h 24.0 mph /  38.6 km/h 64 % 0.00 in /  0 mm 410 W/m2
12:59 43.2 °F /  6.2 °C 31.0 °F /  -0.6 °C 29.78 in /  1008.4 hPa NW 13.0 mph /  20.9 km/h 24.0 mph /  38.6 km/h 62 % 0.00 in /  0 mm 406 W/m2
13:04 43.0 °F /  6.1 °C 30.8 °F /  -0.7 °C 29.79 in /  1008.7 hPa NW 14.0 mph /  22.5 km/h 21.0 mph /  33.8 km/h 62 % 0.00 in /  0 mm 406 W/m2
13:09 43.0 °F /  6.1 °C 30.8 °F /  -0.7 °C 29.79 in /  1008.7 hPa NW 14.0 mph /  22.5 km/h 25.0 mph /  40.2 km/h 62 % 0.00 in /  0 mm 399 W/m2
13:14 43.2 °F /  6.2 °C 31.0 °F /  -0.6 °C 29.79 in /  1008.7 hPa WNW 12.0 mph /  19.3 km/h 19.0 mph /  30.6 km/h 62 % 0.00 in /  0 mm 396 W/m2
13:19 43.3 °F /  6.3 °C 30.4 °F /  -0.9 °C 29.80 in /  1009 hPa NW 16.0 mph /  25.7 km/h 29.0 mph /  46.7 km/h 60 % 0.00 in /  0 mm 394 W/m2
13:24 43.3 °F /  6.3 °C 30.0 °F /  -1.1 °C 29.80 in /  1009 hPa NW 17.0 mph /  27.4 km/h 27.0 mph /  43.5 km/h 59 % 0.00 in /  0 mm 388 W/m2
13:29 43.3 °F /  6.3 °C 30.8 °F /  -0.7 °C 29.80 in /  1009 hPa NW 11.0 mph /  17.7 km/h 20.0 mph /  32.2 km/h 61 % 0.00 in /  0 mm 378 W/m2
13:34 43.5 °F /  6.4 °C 29.7 °F /  -1.3 °C 29.80 in /  1009 hPa NW 17.0 mph /  27.4 km/h 31.0 mph /  49.9 km/h 58 % 0.00 in /  0 mm 385 W/m2
13:39 43.5 °F /  6.4 °C 29.7 °F /  -1.3 °C 29.81 in /  1009.4 hPa NW 16.0 mph /  25.7 km/h 24.0 mph /  38.6 km/h 58 % 0.00 in /  0 mm 383 W/m2
13:44 43.3 °F /  6.3 °C 29.1 °F /  -1.6 °C 29.81 in /  1009.4 hPa NW 15.0 mph /  24.1 km/h 22.0 mph /  35.4 km/h 57 % 0.00 in /  0 mm 373 W/m2
13:49 43.3 °F /  6.3 °C 29.5 °F /  -1.4 °C 29.81 in /  1009.4 hPa NW 15.0 mph /  24.1 km/h 25.0 mph /  40.2 km/h 58 % 0.00 in /  0 mm 362 W/m2
13:54 43.3 °F /  6.3 °C 29.5 °F /  -1.4 °C 29.81 in /  1009.4 hPa NW 14.0 mph /  22.5 km/h 24.0 mph /  38.6 km/h 58 % 0.00 in /  0 mm 366 W/m2
13:59 43.3 °F /  6.3 °C 29.5 °F /  -1.4 °C 29.81 in /  1009.4 hPa NW 16.0 mph /  25.7 km/h 23.0 mph /  37 km/h 58 % 0.00 in /  0 mm 350 W/m2
14:04 43.3 °F /  6.3 °C 29.5 °F /  -1.4 °C 29.81 in /  1009.4 hPa NW 14.0 mph /  22.5 km/h 26.0 mph /  41.8 km/h 58 % 0.00 in /  0 mm 353 W/m2
14:09 43.5 °F /  6.4 °C 30.1 °F /  -1.1 °C 29.82 in /  1009.7 hPa WNW 11.0 mph /  17.7 km/h 21.0 mph /  33.8 km/h 59 % 0.00 in /  0 mm 345 W/m2
14:14 43.2 °F /  6.2 °C 29.4 °F /  -1.4 °C 29.82 in /  1009.7 hPa NW 13.0 mph /  20.9 km/h 25.0 mph /  40.2 km/h 58 % 0.00 in /  0 mm 49 W/m2
14:19 42.6 °F /  5.9 °C 28.9 °F /  -1.7 °C 29.82 in /  1009.7 hPa NW 11.0 mph /  17.7 km/h 25.0 mph /  40.2 km/h 58 % 0.00 in /  0 mm 295 W/m2
14:24 42.6 °F /  5.9 °C 29.3 °F /  -1.5 °C 29.82 in /  1009.7 hPa NW 15.0 mph /  24.1 km/h 30.0 mph /  48.3 km/h 59 % 0.00 in /  0 mm 309 W/m2
14:29 42.8 °F /  6 °C 29.0 °F /  -1.7 °C 29.83 in /  1010 hPa NW 9.0 mph /  14.5 km/h 20.0 mph /  32.2 km/h 58 % 0.00 in /  0 mm 302 W/m2
14:34 43.2 °F /  6.2 °C 29.4 °F /  -1.4 °C 29.83 in /  1010 hPa NW 16.0 mph /  25.7 km/h 22.0 mph /  35.4 km/h 58 % 0.00 in /  0 mm 294 W/m2
14:39 43.2 °F /  6.2 °C 28.9 °F /  -1.7 °C 29.83 in /  1010 hPa NW 15.0 mph /  24.1 km/h 23.0 mph /  37 km/h 57 % 0.00 in /  0 mm 285 W/m2
14:45 43.3 °F /  6.3 °C 29.1 °F /  -1.6 °C 29.83 in /  1010 hPa NW 14.0 mph /  22.5 km/h 21.0 mph /  33.8 km/h 57 % 0.00 in /  0 mm 279 W/m2
14:50 43.2 °F /  6.2 °C 28.9 °F /  -1.7 °C 29.83 in /  1010 hPa NW 14.0 mph /  22.5 km/h 23.0 mph /  37 km/h 57 % 0.00 in /  0 mm 272 W/m2
14:55 43.2 °F /  6.2 °C 28.9 °F /  -1.7 °C 29.84 in /  1010.4 hPa NW 11.0 mph /  17.7 km/h 20.0 mph /  32.2 km/h 57 % 0.00 in /  0 mm 264 W/m2
15:00 43.3 °F /  6.3 °C 29.5 °F /  -1.4 °C 29.84 in /  1010.4 hPa NW 13.0 mph /  20.9 km/h 22.0 mph /  35.4 km/h 58 % 0.00 in /  0 mm 250 W/m2
15:05 43.3 °F /  6.3 °C 29.5 °F /  -1.4 °C 29.84 in /  1010.4 hPa NW 12.0 mph /  19.3 km/h 20.0 mph /  32.2 km/h 58 % 0.00 in /  0 mm 243 W/m2
15:10 43.0 °F /  6.1 °C 29.2 °F /  -1.6 °C 29.84 in /  1010.4 hPa NW 11.0 mph /  17.7 km/h 19.0 mph /  30.6 km/h 58 % 0.00 in /  0 mm 58 W/m2
15:15 42.6 °F /  5.9 °C 29.3 °F /  -1.5 °C 29.85 in /  1010.7 hPa NW 11.0 mph /  17.7 km/h 20.0 mph /  32.2 km/h 59 % 0.00 in /  0 mm 178 W/m2
15:20 42.4 °F /  5.8 °C 29.1 °F /  -1.6 °C 29.85 in /  1010.7 hPa NW 11.0 mph /  17.7 km/h 16.0 mph /  25.7 km/h 59 % 0.00 in /  0 mm 37 W/m2
15:25 41.9 °F /  5.5 °C 28.2 °F /  -2.1 °C 29.86 in /  1011.1 hPa NW 14.0 mph /  22.5 km/h 23.0 mph /  37 km/h 58 % 0.00 in /  0 mm 42 W/m2
15:30 41.5 °F /  5.3 °C 28.3 °F /  -2.1 °C 29.85 in /  1010.7 hPa NW 13.0 mph /  20.9 km/h 21.0 mph /  33.8 km/h 59 % 0.00 in /  0 mm 62 W/m2
15:35 41.4 °F /  5.2 °C 28.5 °F /  -1.9 °C 29.86 in /  1011.1 hPa NW 11.0 mph /  17.7 km/h 20.0 mph /  32.2 km/h 60 % 0.00 in /  0 mm 179 W/m2
15:40 41.4 °F /  5.2 °C 28.5 °F /  -1.9 °C 29.86 in /  1011.1 hPa NW 12.0 mph /  19.3 km/h 21.0 mph /  33.8 km/h 60 % 0.00 in /  0 mm 163 W/m2
15:45 41.4 °F /  5.2 °C 28.9 °F /  -1.7 °C 29.86 in /  1011.1 hPa NW 10.0 mph /  16.1 km/h 18.0 mph /  29 km/h 61 % 0.00 in /  0 mm 42 W/m2
15:50 41.4 °F /  5.2 °C 28.9 °F /  -1.7 °C 29.86 in /  1011.1 hPa NW 12.0 mph /  19.3 km/h 23.0 mph /  37 km/h 61 % 0.00 in /  0 mm 33 W/m2
15:55 41.2 °F /  5.1 °C 28.7 °F /  -1.8 °C 29.87 in /  1011.4 hPa WNW 11.0 mph /  17.7 km/h 19.0 mph /  30.6 km/h 61 % 0.00 in /  0 mm 32 W/m2
16:00 41.2 °F /  5.1 °C 28.7 °F /  -1.8 °C 29.88 in /  1011.7 hPa NW 14.0 mph /  22.5 km/h 21.0 mph /  33.8 km/h 61 % 0.00 in /  0 mm 32 W/m2
16:05 41.2 °F /  5.1 °C 28.7 °F /  -1.8 °C 29.88 in /  1011.7 hPa NW 11.0 mph /  17.7 km/h 18.0 mph /  29 km/h 61 % 0.00 in /  0 mm 35 W/m2
16:10 41.0 °F /  5 °C 28.6 °F /  -1.9 °C 29.88 in /  1011.7 hPa NW 10.0 mph /  16.1 km/h 19.0 mph /  30.6 km/h 61 % 0.00 in /  0 mm 28 W/m2
16:15 40.8 °F /  4.9 °C 28.0 °F /  -2.2 °C 29.88 in /  1011.7 hPa NW 10.0 mph /  16.1 km/h 16.0 mph /  25.7 km/h 60 % 0.00 in /  0 mm 26 W/m2
16:20 40.8 °F /  4.9 °C 28.8 °F /  -1.8 °C 29.89 in /  1012.1 hPa WNW 8.0 mph /  12.9 km/h 13.0 mph /  20.9 km/h 62 % 0.00 in /  0 mm 25 W/m2
16:25 40.8 °F /  4.9 °C 30.3 °F /  -0.9 °C 29.89 in /  1012.1 hPa WNW 13.0 mph /  20.9 km/h 21.0 mph /  33.8 km/h 66 % 0.00 in /  0 mm 21 W/m2
16:31 40.6 °F /  4.8 °C 30.9 °F /  -0.6 °C 29.89 in /  1012.1 hPa WNW 11.0 mph /  17.7 km/h 16.0 mph /  25.7 km/h 68 % 0.00 in /  0 mm 19 W/m2
16:36 40.5 °F /  4.7 °C 31.1 °F /  -0.5 °C 29.90 in /  1012.4 hPa WNW 9.0 mph /  14.5 km/h 14.0 mph /  22.5 km/h 69 % 0.00 in /  0 mm 18 W/m2
16:41 40.1 °F /  4.5 °C 31.1 °F /  -0.5 °C 29.90 in /  1012.4 hPa WNW 8.0 mph /  12.9 km/h 14.0 mph /  22.5 km/h 70 % 0.00 in /  0 mm 16 W/m2
16:46 39.9 °F /  4.4 °C 31.3 °F /  -0.4 °C 29.90 in /  1012.4 hPa WNW 9.0 mph /  14.5 km/h 14.0 mph /  22.5 km/h 71 % 0.00 in /  0 mm 14 W/m2
16:51 39.7 °F /  4.3 °C 31.4 °F /  -0.3 °C 29.90 in /  1012.4 hPa WNW 7.0 mph /  11.3 km/h 12.0 mph /  19.3 km/h 72 % 0.00 in /  0 mm 11 W/m2
16:56 39.6 °F /  4.2 °C 32.0 °F /  0 °C 29.90 in /  1012.4 hPa WNW 9.0 mph /  14.5 km/h 15.0 mph /  24.1 km/h 74 % 0.00 in /  0 mm 9 W/m2
17:01 39.4 °F /  4.1 °C 32.1 °F /  0.1 °C 29.90 in /  1012.4 hPa WNW 7.0 mph /  11.3 km/h 12.0 mph /  19.3 km/h 75 % 0.00 in /  0 mm 7 W/m2
17:06 39.0 °F /  3.9 °C 32.1 °F /  0.1 °C 29.90 in /  1012.4 hPa WNW 7.0 mph /  11.3 km/h 10.0 mph /  16.1 km/h 76 % 0.00 in /  0 mm 5 W/m2
17:11 38.8 °F /  3.8 °C 32.2 °F /  0.1 °C 29.91 in /  1012.8 hPa WNW 5.0 mph /  8 km/h 9.0 mph /  14.5 km/h 77 % 0.00 in /  0 mm 0 W/m2
17:16 38.7 °F /  3.7 °C 32.4 °F /  0.2 °C 29.91 in /  1012.8 hPa WNW 6.0 mph /  9.7 km/h 12.0 mph /  19.3 km/h 78 % 0.00 in /  0 mm 0 W/m2
17:21 38.5 °F /  3.6 °C 32.2 °F /  0.1 °C 29.91 in /  1012.8 hPa WNW 8.0 mph /  12.9 km/h 11.0 mph /  17.7 km/h 78 % 0.00 in /  0 mm 0 W/m2
17:26 38.1 °F /  3.4 °C 32.2 °F /  0.1 °C 29.92 in /  1013.1 hPa WNW 8.0 mph /  12.9 km/h 13.0 mph /  20.9 km/h 79 % 0.00 in /  0 mm 0 W/m2
17:31 37.9 °F /  3.3 °C 32.0 °F /  0 °C 29.92 in /  1013.1 hPa WNW 8.0 mph /  12.9 km/h 12.0 mph /  19.3 km/h 79 % 0.00 in /  0 mm 0 W/m2
17:36 37.9 °F /  3.3 °C 32.3 °F /  0.2 °C 29.92 in /  1013.1 hPa WNW 8.0 mph /  12.9 km/h 14.0 mph /  22.5 km/h 80 % 0.00 in /  0 mm 0 W/m2
17:41 37.8 °F /  3.2 °C 32.1 °F /  0.1 °C 29.92 in /  1013.1 hPa WNW 8.0 mph /  12.9 km/h 13.0 mph /  20.9 km/h 80 % 0.00 in /  0 mm 0 W/m2
17:46 37.8 °F /  3.2 °C 32.5 °F /  0.3 °C 29.93 in /  1013.4 hPa WNW 10.0 mph /  16.1 km/h 15.0 mph /  24.1 km/h 81 % 0.00 in /  0 mm 0 W/m2
17:51 37.6 °F /  3.1 °C 32.3 °F /  0.2 °C 29.93 in /  1013.4 hPa WNW 10.0 mph /  16.1 km/h 14.0 mph /  22.5 km/h 81 % 0.00 in /  0 mm 0 W/m2
17:56 37.6 °F /  3.1 °C 32.3 °F /  0.2 °C 29.93 in /  1013.4 hPa WNW 9.0 mph /  14.5 km/h 12.0 mph /  19.3 km/h 81 % 0.00 in /  0 mm 0 W/m2
18:01 37.6 °F /  3.1 °C 32.6 °F /  0.3 °C 29.93 in /  1013.4 hPa WNW 10.0 mph /  16.1 km/h 14.0 mph /  22.5 km/h 82 % 0.00 in /  0 mm 0 W/m2
18:06 37.4 °F /  3 °C 32.4 °F /  0.2 °C 29.94 in /  1013.8 hPa WNW 10.0 mph /  16.1 km/h 21.0 mph /  33.8 km/h 82 % 0.00 in /  0 mm 0 W/m2
18:11 37.4 °F /  3 °C 32.4 °F /  0.2 °C 29.94 in /  1013.8 hPa WNW 10.0 mph /  16.1 km/h 20.0 mph /  32.2 km/h 82 % 0.00 in /  0 mm 0 W/m2
18:16 37.2 °F /  2.9 °C 32.2 °F /  0.1 °C 29.94 in /  1013.8 hPa WNW 8.0 mph /  12.9 km/h 14.0 mph /  22.5 km/h 82 % 0.00 in /  0 mm 0 W/m2
18:21 37.2 °F /  2.9 °C 32.2 °F /  0.1 °C 29.95 in /  1014.1 hPa WNW 10.0 mph /  16.1 km/h 16.0 mph /  25.7 km/h 82 % 0.00 in /  0 mm 0 W/m2
18:26 37.2 °F /  2.9 °C 32.2 °F /  0.1 °C 29.95 in /  1014.1 hPa WNW 8.0 mph /  12.9 km/h 15.0 mph /  24.1 km/h 82 % 0.00 in /  0 mm 0 W/m2
18:31 37.0 °F /  2.8 °C 32.1 °F /  0.1 °C 29.95 in /  1014.1 hPa WNW 7.0 mph /  11.3 km/h 15.0 mph /  24.1 km/h 82 % 0.00 in /  0 mm 0 W/m2
18:36 37.0 °F /  2.8 °C 32.1 °F /  0.1 °C 29.95 in /  1014.1 hPa WNW 11.0 mph /  17.7 km/h 18.0 mph /  29 km/h 82 % 0.00 in /  0 mm 0 W/m2
18:41 37.0 °F /  2.8 °C 32.1 °F /  0.1 °C 29.95 in /  1014.1 hPa WNW 8.0 mph /  12.9 km/h 13.0 mph /  20.9 km/h 82 % 0.00 in /  0 mm 0 W/m2
18:46 36.9 °F /  2.7 °C 31.9 °F /  -0.1 °C 29.96 in /  1014.4 hPa WNW 9.0 mph /  14.5 km/h 14.0 mph /  22.5 km/h 82 % 0.00 in /  0 mm 0 W/m2
18:51 36.9 °F /  2.7 °C 32.2 °F /  0.1 °C 29.96 in /  1014.4 hPa WNW 6.0 mph /  9.7 km/h 10.0 mph /  16.1 km/h 83 % 0.00 in /  0 mm 0 W/m2
18:56 36.7 °F /  2.6 °C 32.0 °F /  0 °C 29.96 in /  1014.4 hPa WNW 8.0 mph /  12.9 km/h 11.0 mph /  17.7 km/h 83 % 0.00 in /  0 mm 0 W/m2
19:01 36.7 °F /  2.6 °C 32.0 °F /  0 °C 29.97 in /  1014.8 hPa WNW 7.0 mph /  11.3 km/h 10.0 mph /  16.1 km/h 83 % 0.00 in /  0 mm 0 W/m2
19:06 36.5 °F /  2.5 °C 31.8 °F /  -0.1 °C 29.96 in /  1014.4 hPa WNW 5.0 mph /  8 km/h 8.0 mph /  12.9 km/h 83 % 0.00 in /  0 mm 0 W/m2
19:12 36.3 °F /  2.4 °C 31.7 °F /  -0.2 °C 29.97 in /  1014.8 hPa WNW 5.0 mph /  8 km/h 8.0 mph /  12.9 km/h 83 % 0.00 in /  0 mm 0 W/m2
19:16 36.3 °F /  2.4 °C 31.7 °F /  -0.2 °C 29.97 in /  1014.8 hPa WNW 7.0 mph /  11.3 km/h 10.0 mph /  16.1 km/h 83 % 0.00 in /  0 mm 0 W/m2
19:22 36.1 °F /  2.3 °C 31.5 °F /  -0.3 °C 29.97 in /  1014.8 hPa WNW 6.0 mph /  9.7 km/h 9.0 mph /  14.5 km/h 83 % 0.00 in /  0 mm 0 W/m2
19:27 36.1 °F /  2.3 °C 31.5 °F /  -0.3 °C 29.97 in /  1014.8 hPa WNW 6.0 mph /  9.7 km/h 11.0 mph /  17.7 km/h 83 % 0.00 in /  0 mm 0 W/m2
19:32 36.1 °F /  2.3 °C 31.8 °F /  -0.1 °C 29.97 in /  1014.8 hPa WNW 7.0 mph /  11.3 km/h 11.0 mph /  17.7 km/h 84 % 0.00 in /  0 mm 0 W/m2
19:37 36.1 °F /  2.3 °C 31.8 °F /  -0.1 °C 29.97 in /  1014.8 hPa WNW 8.0 mph /  12.9 km/h 13.0 mph /  20.9 km/h 84 % 0.00 in /  0 mm 0 W/m2
19:42 36.1 °F /  2.3 °C 31.8 °F /  -0.1 °C 29.97 in /  1014.8 hPa WNW 7.0 mph /  11.3 km/h 12.0 mph /  19.3 km/h 84 % 0.00 in /  0 mm 0 W/m2
19:47 36.1 °F /  2.3 °C 31.8 °F /  -0.1 °C 29.97 in /  1014.8 hPa WNW 6.0 mph /  9.7 km/h 9.0 mph /  14.5 km/h 84 % 0.00 in /  0 mm 0 W/m2
19:52 36.1 °F /  2.3 °C 31.8 °F /  -0.1 °C 29.97 in /  1014.8 hPa WNW 7.0 mph /  11.3 km/h 11.0 mph /  17.7 km/h 84 % 0.00 in /  0 mm 0 W/m2
19:57 36.1 °F /  2.3 °C 32.1 °F /  0.1 °C 29.97 in /  1014.8 hPa WNW 7.0 mph /  11.3 km/h 11.0 mph /  17.7 km/h 85 % 0.00 in /  0 mm 0 W/m2
20:02 36.1 °F /  2.3 °C 31.8 °F /  -0.1 °C 29.97 in /  1014.8 hPa WNW 8.0 mph /  12.9 km/h 13.0 mph /  20.9 km/h 84 % 0.00 in /  0 mm 0 W/m2
20:07 36.1 °F /  2.3 °C 31.8 °F /  -0.1 °C 29.97 in /  1014.8 hPa WNW 7.0 mph /  11.3 km/h 12.0 mph /  19.3 km/h 84 % 0.00 in /  0 mm 0 W/m2
20:12 36.1 °F /  2.3 °C 31.8 °F /  -0.1 °C 29.98 in /  1015.1 hPa WNW 6.0 mph /  9.7 km/h 9.0 mph /  14.5 km/h 84 % 0.00 in /  0 mm 0 W/m2
20:17 36.1 °F /  2.3 °C 31.8 °F /  -0.1 °C 29.98 in /  1015.1 hPa WNW 6.0 mph /  9.7 km/h 9.0 mph /  14.5 km/h 84 % 0.00 in /  0 mm 0 W/m2
20:22 36.0 °F /  2.2 °C 31.6 °F /  -0.2 °C 29.98 in /  1015.1 hPa WNW 8.0 mph /  12.9 km/h 11.0 mph /  17.7 km/h 84 % 0.00 in /  0 mm 0 W/m2
20:27 36.0 °F /  2.2 °C 31.6 °F /  -0.2 °C 29.98 in /  1015.1 hPa WNW 7.0 mph /  11.3 km/h 9.0 mph /  14.5 km/h 84 % 0.00 in /  0 mm 0 W/m2
20:32 36.0 °F /  2.2 °C 31.6 °F /  -0.2 °C 29.98 in /  1015.1 hPa WNW 8.0 mph /  12.9 km/h 12.0 mph /  19.3 km/h 84 % 0.00 in /  0 mm 0 W/m2
20:37 36.0 °F /  2.2 °C 31.6 °F /  -0.2 °C 29.98 in /  1015.1 hPa WNW 7.0 mph /  11.3 km/h 11.0 mph /  17.7 km/h 84 % 0.00 in /  0 mm 0 W/m2
20:42 36.0 °F /  2.2 °C 31.6 °F /  -0.2 °C 29.98 in /  1015.1 hPa WNW 6.0 mph /  9.7 km/h 9.0 mph /  14.5 km/h 84 % 0.00 in /  0 mm 0 W/m2
20:47 35.8 °F /  2.1 °C 31.4 °F /  -0.3 °C 29.98 in /  1015.1 hPa WNW 5.0 mph /  8 km/h 8.0 mph /  12.9 km/h 84 % 0.00 in /  0 mm 0 W/m2
20:52 35.6 °F /  2 °C 31.2 °F /  -0.4 °C 29.98 in /  1015.1 hPa WNW 5.0 mph /  8 km/h 9.0 mph /  14.5 km/h 84 % 0.00 in /  0 mm 0 W/m2
20:57 35.4 °F /  1.9 °C 31.1 °F /  -0.5 °C 29.98 in /  1015.1 hPa NW 6.0 mph /  9.7 km/h 8.0 mph /  12.9 km/h 84 % 0.00 in /  0 mm 0 W/m2
21:02 35.2 °F /  1.8 °C 31.2 °F /  -0.4 °C 29.98 in /  1015.1 hPa WNW 7.0 mph /  11.3 km/h 11.0 mph /  17.7 km/h 85 % 0.00 in /  0 mm 0 W/m2
21:07 35.2 °F /  1.8 °C 31.2 °F /  -0.4 °C 29.98 in /  1015.1 hPa WNW 8.0 mph /  12.9 km/h 11.0 mph /  17.7 km/h 85 % 0.00 in /  0 mm 0 W/m2
21:12 35.4 °F /  1.9 °C 31.4 °F /  -0.3 °C 29.98 in /  1015.1 hPa WNW 7.0 mph /  11.3 km/h 10.0 mph /  16.1 km/h 85 % 0.00 in /  0 mm 0 W/m2
21:17 35.2 °F /  1.8 °C 31.2 °F /  -0.4 °C 29.98 in /  1015.1 hPa West 7.0 mph /  11.3 km/h 10.0 mph /  16.1 km/h 85 % 0.00 in /  0 mm 0 W/m2
21:23 35.2 °F /  1.8 °C 31.2 °F /  -0.4 °C 29.99 in /  1015.5 hPa WNW 6.0 mph /  9.7 km/h 8.0 mph /  12.9 km/h 85 % 0.00 in /  0 mm 0 W/m2
21:28 35.2 °F /  1.8 °C 31.2 °F /  -0.4 °C 29.99 in /  1015.5 hPa WNW 6.0 mph /  9.7 km/h 8.0 mph /  12.9 km/h 85 % 0.00 in /  0 mm 0 W/m2
21:33 35.1 °F /  1.7 °C 31.0 °F /  -0.6 °C 29.99 in /  1015.5 hPa WNW 6.0 mph /  9.7 km/h 11.0 mph /  17.7 km/h 85 % 0.00 in /  0 mm 0 W/m2
21:38 35.1 °F /  1.7 °C 31.3 °F /  -0.4 °C 29.99 in /  1015.5 hPa NW 5.0 mph /  8 km/h 7.0 mph /  11.3 km/h 86 % 0.00 in /  0 mm 0 W/m2
21:43 35.1 °F /  1.7 °C 31.3 °F /  -0.4 °C 29.99 in /  1015.5 hPa WNW 5.0 mph /  8 km/h 8.0 mph /  12.9 km/h 86 % 0.00 in /  0 mm 0 W/m2
21:48 35.1 °F /  1.7 °C 31.3 °F /  -0.4 °C 29.99 in /  1015.5 hPa WNW 4.0 mph /  6.4 km/h 6.0 mph /  9.7 km/h 86 % 0.00 in /  0 mm 0 W/m2
21:53 34.9 °F /  1.6 °C 31.1 °F /  -0.5 °C 29.99 in /  1015.5 hPa WNW 4.0 mph /  6.4 km/h 5.0 mph /  8 km/h 86 % 0.00 in /  0 mm 0 W/m2
21:58 34.7 °F /  1.5 °C 30.9 °F /  -0.6 °C 29.99 in /  1015.5 hPa WNW 5.0 mph /  8 km/h 8.0 mph /  12.9 km/h 86 % 0.00 in /  0 mm 0 W/m2
22:03 34.5 °F /  1.4 °C 30.8 °F /  -0.7 °C 29.98 in /  1015.1 hPa WNW 6.0 mph /  9.7 km/h 10.0 mph /  16.1 km/h 86 % 0.00 in /  0 mm 0 W/m2
22:08 34.7 °F /  1.5 °C 31.2 °F /  -0.4 °C 29.99 in /  1015.5 hPa WNW 7.0 mph /  11.3 km/h 9.0 mph /  14.5 km/h 87 % 0.00 in /  0 mm 0 W/m2
22:13 34.9 °F /  1.6 °C 31.4 °F /  -0.3 °C 29.99 in /  1015.5 hPa WNW 6.0 mph /  9.7 km/h 9.0 mph /  14.5 km/h 87 % 0.00 in /  0 mm 0 W/m2
22:18 34.9 °F /  1.6 °C 31.4 °F /  -0.3 °C 29.99 in /  1015.5 hPa WNW 7.0 mph /  11.3 km/h 11.0 mph /  17.7 km/h 87 % 0.00 in /  0 mm 0 W/m2
22:23 34.9 °F /  1.6 °C 31.4 °F /  -0.3 °C 29.99 in /  1015.5 hPa WNW 9.0 mph /  14.5 km/h 12.0 mph /  19.3 km/h 87 % 0.00 in /  0 mm 0 W/m2
22:28 35.1 °F /  1.7 °C 31.6 °F /  -0.2 °C 29.99 in /  1015.5 hPa WNW 10.0 mph /  16.1 km/h 14.0 mph /  22.5 km/h 87 % 0.00 in /  0 mm 0 W/m2
22:33 35.2 °F /  1.8 °C 31.5 °F /  -0.3 °C 29.99 in /  1015.5 hPa WNW 6.0 mph /  9.7 km/h 10.0 mph /  16.1 km/h 86 % 0.00 in /  0 mm 0 W/m2
22:38 35.2 °F /  1.8 °C 31.5 °F /  -0.3 °C 29.99 in /  1015.5 hPa West 4.0 mph /  6.4 km/h 7.0 mph /  11.3 km/h 86 % 0.00 in /  0 mm 0 W/m2
22:43 35.1 °F /  1.7 °C 31.3 °F /  -0.4 °C 29.99 in /  1015.5 hPa WNW 7.0 mph /  11.3 km/h 12.0 mph /  19.3 km/h 86 % 0.00 in /  0 mm 0 W/m2
22:48 34.9 °F /  1.6 °C 31.1 °F /  -0.5 °C 29.99 in /  1015.5 hPa WNW 6.0 mph /  9.7 km/h 9.0 mph /  14.5 km/h 86 % 0.00 in /  0 mm 0 W/m2
22:53 34.9 °F /  1.6 °C 31.1 °F /  -0.5 °C 29.99 in /  1015.5 hPa West 2.0 mph /  3.2 km/h 6.0 mph /  9.7 km/h 86 % 0.00 in /  0 mm 0 W/m2
22:58 34.7 °F /  1.5 °C 30.9 °F /  -0.6 °C 29.99 in /  1015.5 hPa WNW 1.0 mph /  1.6 km/h 2.0 mph /  3.2 km/h 86 % 0.00 in /  0 mm 0 W/m2
23:03 34.5 °F /  1.4 °C 30.8 °F /  -0.7 °C 29.99 in /  1015.5 hPa Calm   1.0 mph /  1.6 km/h 86 % 0.00 in /  0 mm 0 W/m2
23:08 34.2 °F /  1.2 °C 30.4 °F /  -0.9 °C 29.99 in /  1015.5 hPa Calm   1.0 mph /  1.6 km/h 86 % 0.00 in /  0 mm 0 W/m2
23:13 34.0 °F /  1.1 °C 30.2 °F /  -1 °C 29.99 in /  1015.5 hPa Calm     86 % 0.00 in /  0 mm 0 W/m2
23:18 33.6 °F /  0.9 °C 29.9 °F /  -1.2 °C 29.99 in /  1015.5 hPa Calm     86 % 0.00 in /  0 mm 0 W/m2
23:23 33.3 °F /  0.7 °C 29.5 °F /  -1.4 °C 29.99 in /  1015.5 hPa Calm     86 % 0.00 in /  0 mm 0 W/m2
23:28 33.1 °F /  0.6 °C 29.6 °F /  -1.3 °C 29.98 in /  1015.1 hPa Calm     87 % 0.00 in /  0 mm 0 W/m2
23:33 32.9 °F /  0.5 °C 29.5 °F /  -1.4 °C 29.99 in /  1015.5 hPa West 1.0 mph /  1.6 km/h 4.0 mph /  6.4 km/h 87 % 0.00 in /  0 mm 0 W/m2
23:38 32.9 °F /  0.5 °C 29.7 °F /  -1.3 °C 29.99 in /  1015.5 hPa Calm     88 % 0.00 in /  0 mm 0 W/m2
23:43 32.9 °F /  0.5 °C 29.7 °F /  -1.3 °C 29.99 in /  1015.5 hPa West 1.0 mph /  1.6 km/h 2.0 mph /  3.2 km/h 88 % 0.00 in /  0 mm 0 W/m2
23:48 33.1 °F /  0.6 °C 30.2 °F /  -1 °C 29.99 in /  1015.5 hPa Calm   2.0 mph /  3.2 km/h 89 % 0.00 in /  0 mm 0 W/m2
23:53 33.1 °F /  0.6 °C 30.2 °F /  -1 °C 29.99 in /  1015.5 hPa Calm     89 % 0.00 in /  0 mm 0 W/m2
23:58 33.1 °F /  0.6 °C 29.9 °F /  -1.2 °C 29.99 in /  1015.5 hPa Calm     88 % 0.00 in /  0 mm 0 W/m2
Delerius-Weather
Compliments of Weather Underground - 2.25 mb

Data updates at regular intervals.